QPF
0.00 0.00 0.00 0.00 0.00 0.00 0.00 0.00 0.00 0.00 0.00 0.00 0.00 0.00 0.00 0.00 0.00 0.00 0.00 0.00 0.00 0.00 0.00 0.00 0.00 0.00 0.00 0.00 0.00 0.00 0.00 0.00 0.00 0.00 0.00 0.00 0.00 0.00 0.00 0.00 0.00 0.00 0.00 0.00 0.00
0.00 0.00 0.00 0.00 0.00 0.00 0.00 0.00 0.00 0.00 0.00 0.00 0.00 0.00 0.00 0.00 0.00 0.00 0.00 0.00 0.00 0.00 0.00 0.00 0.00 0.00 0.00 0.00 0.00 0.00 0.00 0.00 0.00 0.00 0.00 0.00 0.00 0.00 0.00 0.00 0.00 0.00 0.00 0.00 0.00
0.00 0.00 0.00 0.00 0.00 0.00 0.00 0.00 0.00 0.00 0.00 0.00 0.00 0.00 0.00 0.00 0.00 0.00 0.00 0.00 0.00 0.00 0.00 0.00 0.00 0.00 0.00 0.00 0.00 0.00 0.00 0.00 0.00 0.00 0.00 0.00 0.00 0.00 0.00 0.00 0.00 0.00 0.00 0.00 0.00
0.00 0.00 0.00 0.00 0.00 0.00 0.00 0.00 0.00 0.00 0.00 0.00 0.00 0.00 0.00 0.00 0.00 0.00 0.00 0.00 0.00 0.00 0.00 0.00 0.00 0.00 0.00 0.00 0.00 0.00 0.00 0.00 0.00 0.00 0.00 0.00 0.00 0.00 0.00 0.00 0.00 0.00 0.00 0.00 0.00
0.00 0.00 0.00 0.00 0.00 0.00 0.00 0.00 0.00 0.00 0.00 0.00 0.00 0.00 0.00 0.00 0.00 0.00 0.00 0.00 0.00 0.00 0.00 0.00 0.00 0.00 0.00 0.00 0.00 0.00 0.00 0.00 0.00 0.00 0.00 0.00 0.00 0.00 0.00 0.00 0.00 0.00 0.00 0.00 0.00
0.00 0.00 0.00 0.00 0.00 0.00 0.00 0.00 0.00 0.00 0.00 0.00 0.00 0.00 0.00 0.00 0.00 0.00 0.00 0.00 0.00 0.00 0.00 0.00 0.00 0.00 0.00 0.00 0.00 0.00 0.00 0.00 0.00 0.00 0.00 0.00 0.00 0.00 0.00 0.00 0.00 0.00 0.00 0.00 0.00
0.00 0.00 0.00 0.00 0.00 0.00 0.00 0.00 0.00 0.00 0.00 0.00 0.00 0.00 0.00 0.00 0.00 0.00 0.00 0.00 0.00 0.00 0.00 0.00 0.00 0.00 0.00 0.00 0.00 0.00 0.00 0.00 0.00 0.00 0.00 0.00 0.00 0.00 0.00 0.00 0.00 0.00 0.00 0.00 0.00
0.00 0.00 0.00 0.00 0.00 0.00 0.00 0.00 0.00 0.00 0.00 0.00 0.00 0.00 0.00 0.00 0.00 0.00 0.00 0.00 0.00 0.00 0.00 0.00 0.00 0.00 0.00 0.00 0.00 0.00 0.00 0.00 0.00 0.00 0.00 0.00 0.00 0.00 0.00 0.00 0.00 0.00 0.00 0.00 0.00
0.00 0.00 0.00 0.00 0.00 0.00 0.00 0.00 0.00 0.00 0.00 0.00 0.00 0.00 0.00 0.00 0.00 0.00 0.00 0.00 0.00 0.00 0.00 0.00 0.00 0.00 0.00 0.00 0.00 0.00 0.01 0.00 0.00 0.00 0.00 0.00 0.00 0.00 0.00 0.00 0.00 0.00 0.00 0.00 0.00
0.00 0.00 0.00 0.00 0.00 0.00 0.00 0.00 0.00 0.00 0.00 0.00 0.00 0.00 0.00 0.00 0.00 0.00 0.00 0.00 0.00 0.00 0.00 0.00 0.00 0.00 0.00 0.00 0.02 0.01 0.00 0.00 0.00 0.00 0.00 0.00 0.00 0.00 0.00 0.00 0.00 0.00 0.00 0.00 0.00
0.00 0.00 0.00 0.00 0.00 0.00 0.00 0.00 0.00 0.00 0.00 0.00 0.00 0.00 0.00 0.00 0.00 0.00 0.00 0.00 0.00 0.00 0.00 0.00 0.00 0.00 0.00 0.00 0.00 0.00 0.00 0.00 0.00 0.00 0.00 0.00 0.00 0.00 0.00 0.00 0.00 0.00 0.00 0.00 0.00
0.00 0.00 0.00 0.00 0.00 0.00 0.00 0.00 0.00 0.00 0.00 0.00 0.00 0.00 0.00 0.00 0.00 0.00 0.00 0.00 0.00 0.00 0.00 0.00 0.00 0.00 0.00 0.00 0.00 0.00 0.00 0.00 0.00 0.00 0.00 0.00 0.00 0.00 0.00 0.00 0.00 0.00 0.00 0.00 0.00
0.00 0.00 0.00 0.00 0.00 0.00 0.00 0.00 0.00 0.00 0.00 0.00 0.00 0.00 0.00 0.00 0.00 0.00 0.00 0.00 0.00 0.00 0.00 0.00 0.00 0.00 0.00 0.00 0.00 0.00 0.00 0.00 0.00 0.00 0.00 0.00 0.00 0.00 0.00 0.00 0.00 0.00 0.00 0.00 0.00
0.00 0.00 0.00 0.00 0.00 0.00 0.00 0.00 0.00 0.00 0.00 0.00 0.00 0.00 0.00 0.00 0.00 0.00 0.00 0.00 0.00 0.00 0.00 0.00 0.00 0.00 0.00 0.00 0.00 0.00 0.00 0.00 0.00 0.00 0.00 0.00 0.00 0.00 0.00 0.00 0.00 0.00 0.00 0.00 0.00
0.00 0.00 0.00 0.00 0.00 0.00 0.00 0.00 0.00 0.00 0.00 0.00 0.00 0.00 0.00 0.00 0.00 0.00 0.00 0.00 0.00 0.00 0.00 0.00 0.00 0.00 0.00 0.00 0.00 0.00 0.00 0.00 0.00 0.00 0.00 0.00 0.00 0.00 0.00 0.00 0.00 0.00 0.00 0.00 0.00
0.00 0.00 0.00 0.00 0.00 0.00 0.00 0.00 0.00 0.00 0.00 0.00 0.00 0.00 0.00 0.00 0.00 0.00 0.00 0.00 0.00 0.00 0.00 0.00 0.00 0.00 0.00 0.00 0.00 0.00 0.00 0.00 0.00 0.00 0.00 0.00 0.00 0.00 0.00 0.00 0.00 0.00 0.00 0.00 0.00
0.00 0.00 0.00 0.00 0.00 0.00 0.00 0.00 0.00 0.00 0.00 0.00 0.00 0.00 0.00 0.00 0.00 0.00 0.00 0.00 0.00 0.00 0.00 0.00 0.00 0.00 0.00 0.00 0.00 0.00 0.00 0.00 0.00 0.00 0.00 0.00 0.00 0.00 0.00 0.00 0.00 0.00 0.00 0.00 0.00
0.00 0.00 0.00 0.00 0.00 0.00 0.00 0.00 0.00 0.00 0.00 0.00 0.00 0.00 0.00 0.00 0.00 0.00 0.00 0.00 0.00 0.00 0.00 0.00 0.00 0.00 0.00 0.00 0.00 0.00 0.00 0.00 0.00 0.00 0.00 0.00 0.00 0.00 0.00 0.00 0.00 0.00 0.00 0.00 0.00
0.00 0.00 0.00 0.00 0.00 0.00 0.00 0.00 0.00 0.00 0.00 0.00 0.00 0.00 0.00 0.00 0.00 0.00 0.00 0.00 0.00 0.00 0.00 0.00 0.00 0.00 0.00 0.00 0.00 0.00 0.00 0.00 0.00 0.00 0.00 0.00 0.00 0.00 0.00 0.00 0.00 0.00 0.00 0.00 0.00
0.00 0.00 0.00 0.00 0.00 0.00 0.00 0.00 0.00 0.00 0.00 0.00 0.00 0.00 0.00 0.00 0.00 0.00 0.00 0.00 0.00 0.00 0.00 0.00 0.00 0.00 0.00 0.00 0.00 0.00 0.00 0.00 0.00 0.00 0.00 0.00 0.00 0.00 0.00 0.00 0.00 0.00 0.00 0.00 0.00
0.00 0.00 0.00 0.00 0.00 0.00 0.00 0.00 0.00 0.00 0.00 0.00 0.00 0.00 0.00 0.00 0.00 0.00 0.00 0.00 0.00 0.00 0.00 0.00 0.00 0.00 0.00 0.00 0.00 0.00 0.00 0.00 0.00 0.00 0.00 0.00 0.00 0.00 0.00 0.00 0.00 0.00 0.00 0.00 0.00
0.00 0.00 0.00 0.00 0.00 0.00 0.00 0.00 0.00 0.00 0.00 0.00 0.00 0.00 0.00 0.00 0.00 0.00 0.00 0.00 0.00 0.00 0.00 0.00 0.00 0.00 0.00 0.00 0.00 0.00 0.00 0.00 0.00 0.00 0.00 0.00 0.00 0.00 0.00 0.00 0.00 0.00 0.00 0.00 0.00
0.00 0.00 0.00 0.00 0.00 0.00 0.00 0.00 0.00 0.00 0.00 0.00 0.00 0.00 0.00 0.00 0.00 0.00 0.00 0.00 0.00 0.00 0.00 0.00 0.00 0.00 0.00 0.00 0.00 0.00 0.00 0.00 0.00 0.00 0.00 0.00 0.00 0.00 0.00 0.00 0.00 0.00 0.00 0.00 0.00
0.00 0.00 0.00 0.00 0.00 0.00 0.00 0.00 0.00 0.00 0.00 0.00 0.00 0.00 0.00 0.00 0.00 0.00 0.00 0.00 0.00 0.00 0.00 0.00 0.00 0.00 0.00 0.00 0.00 0.00 0.00 0.00 0.00 0.00 0.00 0.00 0.00 0.00 0.00 0.00 0.00 0.00 0.00 0.00 0.00
0.00 0.00 0.00 0.00 0.00 0.00 0.00 0.00 0.00 0.00 0.00 0.00 0.00 0.00 0.00 0.00 0.00 0.00 0.00 0.00 0.00 0.00 0.00 0.00 0.00 0.00 0.00 0.00 0.00 0.00 0.00 0.00 0.00 0.00 0.00 0.00 0.00 0.00 0.00 0.00 0.00 0.00 0.00 0.00 0.00
0.00 0.00 0.00 0.00 0.00 0.00 0.00 0.00 0.00 0.00 0.00 0.00 0.00 0.00 0.00 0.00 0.00 0.00 0.00 0.00 0.00 0.00 0.00 0.00 0.00 0.00 0.00 0.00 0.00 0.00 0.00 0.00 0.00 0.00 0.00 0.00 0.00 0.00 0.00 0.00 0.00 0.00 0.00 0.00 0.00
0.00 0.00 0.00 0.00 0.00 0.00 0.00 0.00 0.00 0.00 0.00 0.00 0.00 0.00 0.00 0.00 0.00 0.00 0.00 0.00 0.00 0.00 0.00 0.00 0.00 0.00 0.00 0.00 0.00 0.00 0.00 0.00 0.00 0.00 0.00 0.00 0.00 0.00 0.00 0.00 0.00 0.00 0.00 0.00 0.00
MSLP
1015.43 1015.03 1014.54 1014.22 1013.86 1013.46 1013.00 1012.43 1012.00 1011.49 1010.98 1010.47 1010.11 1009.62 1009.06 1008.33 1007.10 1006.34 1004.02 1003.96 1004.13 1004.68 1004.85 1003.56 1003.10 1002.42 1002.02 1000.06 999.63 998.94 998.02 998.58 999.36 1000.50 1002.06 1002.80 1003.03 1003.47 1003.83 1004.37 1004.64 1005.01 1005.02 1006.76 1008.30
1015.45 1015.06 1014.53 1014.12 1013.73 1013.36 1012.97 1012.47 1011.97 1011.37 1010.85 1010.28 1009.87 1009.41 1008.87 1008.33 1006.34 1004.04 1004.27 1003.98 1004.30 1004.46 1004.06 1002.30 1001.06 1001.33 999.78 998.65 997.93 997.92 998.20 999.17 999.66 1000.23 1001.65 1002.31 1002.60 1003.31 1003.73 1004.05 1004.62 1004.80 1005.44 1006.99 1008.15
1015.45 1015.03 1014.49 1014.06 1013.59 1013.23 1012.81 1012.33 1011.89 1011.35 1010.76 1010.12 1009.58 1009.13 1008.66 1008.24 1005.22 1002.42 1003.95 1003.99 1004.23 1004.04 1002.16 1001.69 1001.01 1000.21 998.20 997.42 997.41 997.47 998.33 999.22 1000.04 1000.46 1001.37 1002.11 1002.67 1003.13 1003.00 1003.36 1004.04 1004.59 1005.86 1007.06 1007.86
1015.42 1014.98 1014.44 1013.93 1013.43 1013.00 1012.65 1012.19 1011.69 1011.19 1010.67 1010.05 1009.37 1008.84 1008.29 1006.61 1003.47 1003.06 1003.85 1004.09 1004.14 1003.81 1002.40 1001.20 1000.19 998.88 997.54 997.21 997.29 997.36 998.64 999.24 1000.13 1000.80 1001.32 1001.62 1002.19 1002.31 1002.46 1002.83 1003.31 1004.62 1005.85 1006.84 1007.51
1015.28 1014.79 1014.31 1013.83 1013.27 1012.78 1012.38 1011.99 1011.57 1011.06 1010.46 1009.85 1009.28 1008.85 1007.08 1004.79 1002.40 1003.22 1003.94 1004.33 1004.35 1003.84 1001.96 1000.63 999.48 997.89 997.20 996.90 997.45 997.40 998.33 999.22 1000.15 1000.57 1000.89 1001.66 1001.91 1002.08 1002.61 1003.32 1003.40 1004.53 1005.73 1006.53 1006.96
1015.31 1014.72 1014.10 1013.59 1013.14 1012.62 1012.13 1011.76 1011.29 1010.88 1010.19 1009.63 1009.12 1008.92 1007.01 1003.30 1002.18 1002.47 1003.11 1003.84 1002.86 1002.60 1001.17 1000.34 999.06 998.56 997.42 996.98 998.90 998.08 998.31 998.89 999.70 1000.32 1000.76 1000.95 1001.57 1002.08 1002.71 1003.09 1003.33 1004.40 1005.36 1005.99 1006.43
1015.34 1014.70 1014.10 1013.55 1012.92 1012.41 1011.95 1011.54 1011.03 1010.32 1009.84 1009.31 1008.95 1008.25 1004.99 1002.21 1002.02 1002.26 1002.40 1002.18 1002.08 1001.36 1000.58 999.56 999.25 998.67 997.42 997.08 997.63 997.65 997.85 997.94 998.72 999.71 1000.02 999.74 1000.19 1001.29 1002.51 1002.97 1003.47 1004.16 1004.84 1005.38 1005.89
1015.20 1014.62 1013.93 1013.32 1012.75 1012.13 1011.59 1011.09 1010.55 1009.87 1009.41 1008.84 1008.60 1007.27 1003.35 1002.00 1001.96 1001.99 1001.84 1001.53 1001.44 1001.06 1000.77 999.93 999.52 998.90 997.63 997.62 997.55 997.72 997.93 996.48 998.04 999.21 999.84 999.95 1000.10 1001.28 1002.36 1002.77 1003.23 1003.94 1004.50 1004.99 1005.46
1015.01 1014.39 1013.78 1013.17 1012.57 1011.92 1011.14 1010.67 1009.92 1009.43 1009.07 1008.59 1007.83 1005.57 1002.08 1002.62 1001.91 1001.23 1001.24 1000.82 1000.50 1000.69 1000.52 1000.34 999.87 998.50 997.48 997.07 996.74 997.43 999.41 997.60 997.47 998.59 999.06 999.66 999.26 1000.94 1001.94 1002.33 1002.82 1003.45 1003.94 1004.53 1005.07
1014.61 1014.09 1013.53 1012.93 1012.34 1011.76 1010.85 1009.95 1009.02 1008.98 1008.57 1007.31 1005.97 1004.48 1001.92 1000.93 1001.12 1001.23 1001.15 1001.16 1000.40 999.99 1000.09 1000.05 999.25 998.15 997.15 996.14 998.45 997.97 996.54 996.85 997.27 997.79 998.34 998.64 998.81 999.97 1001.27 1001.56 1002.07 1002.68 1003.21 1003.90 1004.34
1014.32 1013.70 1013.14 1012.59 1012.05 1011.55 1010.40 1008.11 1008.28 1007.32 1005.63 1003.31 1002.69 1001.62 1001.59 1001.52 1001.52 1001.05 1000.48 1000.63 1000.43 999.67 999.13 998.90 998.14 997.11 996.28 995.87 997.75 996.99 996.49 996.78 997.00 997.67 997.88 997.47 997.55 998.07 999.74 1000.60 1001.08 1001.73 1002.39 1002.98 1003.52
1014.07 1013.40 1012.79 1012.23 1011.64 1011.21 1010.84 1006.70 1006.52 1006.33 1003.94 1002.89 1002.73 1002.45 1002.01 1001.86 1000.93 1000.29 1000.55 1000.23 999.77 999.13 998.79 998.15 997.18 996.87 996.43 996.07 996.17 996.84 996.76 996.51 996.62 997.17 997.42 996.73 996.32 996.60 997.92 999.32 999.89 1000.68 1001.48 1002.00 1002.63
1013.71 1013.06 1012.47 1011.91 1011.31 1010.41 1007.42 1006.76 1006.47 1005.91 1003.89 1002.08 1001.74 1001.37 1001.34 1001.71 1000.28 999.12 1000.13 999.64 998.94 998.77 998.12 997.39 996.55 996.84 996.53 996.18 996.63 996.66 996.34 996.13 996.36 996.75 996.45 995.82 995.20 995.51 996.24 997.88 998.97 999.60 1000.39 1001.09 1001.67
1013.46 1012.77 1012.22 1011.65 1011.33 1007.56 1006.40 1006.59 1006.15 1005.94 1002.60 1001.29 1000.94 1001.11 1001.24 1001.02 1000.17 999.73 999.88 999.25 998.89 998.27 997.81 997.18 996.97 996.47 996.66 996.61 996.78 995.97 996.03 996.19 996.80 996.74 995.42 995.46 994.75 994.26 996.69 996.79 997.74 998.43 999.11 999.93 1000.70
1013.10 1012.45 1011.98 1011.93 1009.34 1006.38 1006.56 1006.27 1006.08 1005.43 1001.15 1000.80 1000.40 1001.01 1000.69 1000.32 999.64 999.85 1000.10 999.71 998.68 998.25 998.10 997.02 997.09 996.70 996.83 996.77 996.78 996.43 996.26 996.56 997.02 996.78 996.11 995.08 994.57 994.25 995.10 996.10 996.24 997.23 997.77 998.62 999.62
1012.73 1012.13 1011.65 1010.83 1008.60 1006.73 1006.36 1006.05 1005.72 1003.73 1000.61 1000.08 1000.13 999.86 999.75 999.73 999.31 999.63 999.97 999.98 999.07 998.32 998.07 997.61 997.21 997.37 997.22 996.93 996.89 997.04 996.77 996.75 997.16 996.73 995.73 995.00 994.26 993.46 994.57 995.09 994.61 994.93 996.38 997.36 998.30
1012.42 1011.85 1011.51 1009.06 1006.59 1006.55 1006.31 1005.29 1003.31 1000.80 1001.07 1000.28 999.59 999.30 998.68 998.84 999.05 998.94 999.15 999.20 998.73 998.54 997.82 997.63 997.25 997.93 997.81 997.17 996.97 997.02 996.78 996.10 995.84 995.34 994.46 994.05 993.44 992.75 992.76 993.82 993.41 993.88 994.69 995.93 997.10
1012.10 1011.60 1009.63 1008.19 1007.03 1006.55 1005.66 1003.82 1001.64 1001.53 1000.46 1000.71 1000.00 999.56 998.79 998.75 998.64 998.75 998.42 998.34 998.36 998.04 997.39 996.26 995.99 996.52 996.89 997.18 996.76 996.12 996.16 995.41 994.88 994.39 993.63 992.90 992.12 991.85 992.52 992.81 993.15 993.32 994.19 994.95 995.92
1011.68 1009.60 1007.22 1006.39 1006.52 1006.55 1004.93 1001.97 1001.52 1001.33 1001.34 1000.41 999.74 998.90 999.10 999.35 998.85 998.47 998.35 998.03 998.76 999.01 998.34 997.16 996.41 996.24 996.77 996.98 997.00 996.40 995.80 995.45 994.90 994.34 993.55 992.61 991.53 992.17 992.11 992.67 993.06 992.96 993.41 994.35 995.32
1010.40 1006.87 1005.78 1005.84 1005.76 1005.51 1003.73 1002.39 1002.50 1002.47 1001.99 1001.12 999.84 999.95 999.05 999.31 999.16 998.62 999.21 1000.17 999.87 1000.06 999.74 998.56 997.65 997.10 996.77 997.15 997.05 996.60 996.13 995.21 995.13 994.68 993.78 992.85 991.94 991.24 991.57 992.11 992.67 992.73 993.03 993.98 995.03
1009.95 1005.49 1005.29 1005.02 1004.91 1004.08 1002.19 1002.75 1002.82 1002.76 1002.62 1001.63 1000.91 1000.46 1000.29 1000.13 999.85 999.39 999.62 1000.88 1001.11 1000.50 1000.17 999.42 998.53 997.47 996.98 996.56 996.31 996.18 996.23 995.78 995.30 994.26 993.45 992.82 991.99 991.20 991.00 991.60 992.58 992.71 993.21 993.93 994.81
1007.81 1004.55 1005.03 1004.75 1003.71 1002.86 1002.47 1003.22 1003.92 1002.79 1002.86 1002.28 1002.19 1001.64 1001.35 1001.32 1000.61 1000.38 1000.44 1001.23 1002.25 1001.70 1000.80 1000.24 999.74 997.75 996.64 995.97 995.91 995.78 995.21 995.17 995.10 994.99 994.53 993.61 992.02 991.63 991.94 992.11 992.48 993.36 993.98 994.41 994.58
1007.47 1005.46 1004.84 1004.26 1002.63 1002.67 1003.82 1003.69 1003.62 1003.10 1003.08 1002.74 1002.48 1002.67 1002.47 1002.05 1002.06 1001.72 1001.70 1002.23 1002.84 1002.41 1002.08 1001.74 1000.34 998.51 996.97 995.93 995.70 996.29 996.17 995.84 995.27 994.61 993.78 993.24 992.39 992.01 992.15 992.32 992.76 993.45 994.18 994.76 995.24
1008.39 1005.20 1004.58 1004.48 1004.35 1003.67 1003.73 1003.73 1003.60 1004.34 1003.91 1003.79 1003.41 1003.42 1002.99 1002.51 1002.44 1002.36 1002.08 1002.12 1003.00 1003.14 1003.57 1003.53 1001.38 1000.00 998.59 997.31 998.68 997.83 996.48 996.27 995.76 994.86 994.11 993.30 992.86 992.66 992.75 992.96 993.31 993.85 994.36 995.25 995.42
1008.91 1007.01 1006.92 1004.61 1004.58 1004.65 1004.81 1004.74 1004.26 1004.00 1004.49 1004.54 1003.95 1003.99 1003.83 1003.44 1002.79 1002.47 1002.31 1002.41 1002.68 1003.29 1003.24 1002.81 1001.29 1000.66 999.98 999.17 998.46 997.83 997.16 996.69 996.16 995.66 994.89 994.16 993.48 993.21 993.08 993.26 994.04 994.97 995.43 995.60 995.69
1010.19 1009.32 1007.86 1006.62 1006.35 1005.84 1005.71 1004.92 1005.08 1004.89 1005.34 1004.38 1004.90 1004.50 1004.95 1004.57 1004.17 1003.66 1003.41 1003.19 1002.98 1002.86 1002.49 1002.20 1001.51 1001.33 1000.67 999.97 999.20 998.19 997.45 996.63 996.09 995.55 994.88 994.68 994.29 994.35 993.97 994.20 994.88 995.46 995.92 996.24 996.17
1011.91 1010.84 1009.91 1007.81 1006.38 1006.04 1005.46 1005.93 1006.15 1006.65 1006.06 1005.94 1005.87 1005.89 1005.47 1005.18 1005.55 1005.10 1004.64 1004.01 1003.51 1003.09 1002.69 1002.49 1002.05 1001.51 1000.32 999.84 999.11 998.01 997.09 996.34 995.95 995.40 994.56 994.11 994.26 994.37 994.85 994.99 995.38 996.06 996.79 997.07 996.89
Thickness
5783 5786 5790 5793 5796 5800 5804 5809 5812 5817 5821 5827 5830 5835 5841 5848 5859 5868 5875 5882 5884 5879 5878 5882 5880 5879 5880 5880 5891 5892 5865 5843 5841 5830 5818 5834 5820 5831 5833 5814 5816 5818 5817 5810 5806
5781 5785 5789 5793 5796 5799 5803 5808 5812 5817 5822 5828 5832 5836 5842 5848 5865 5877 5885 5887 5885 5883 5878 5879 5878 5880 5878 5888 5896 5880 5856 5843 5861 5856 5834 5836 5832 5826 5819 5814 5809 5814 5822 5813 5805
5778 5782 5787 5791 5795 5798 5802 5807 5812 5817 5821 5827 5834 5838 5842 5847 5863 5882 5888 5888 5886 5888 5899 5894 5891 5886 5889 5905 5897 5889 5854 5866 5860 5864 5855 5839 5832 5838 5827 5813 5819 5812 5811 5809 5804
5776 5780 5785 5789 5794 5798 5801 5806 5811 5816 5821 5827 5833 5839 5845 5857 5835 5884 5887 5887 5888 5892 5892 5889 5887 5880 5886 5881 5898 5872 5875 5873 5865 5864 5854 5842 5848 5836 5840 5836 5845 5833 5822 5813 5805
5774 5779 5783 5787 5792 5797 5801 5804 5809 5815 5821 5827 5833 5837 5854 5854 5865 5888 5884 5883 5885 5885 5885 5885 5881 5894 5884 5896 5892 5884 5876 5877 5871 5868 5863 5858 5844 5844 5840 5847 5852 5839 5825 5816 5813
5770 5775 5781 5786 5790 5795 5799 5803 5808 5813 5820 5827 5832 5834 5847 5840 5893 5892 5891 5883 5890 5886 5890 5893 5890 5899 5895 5896 5857 5886 5882 5878 5876 5868 5865 5854 5849 5849 5845 5854 5848 5837 5826 5823 5819
5765 5770 5776 5782 5787 5792 5797 5801 5807 5814 5820 5826 5831 5838 5848 5857 5892 5893 5891 5889 5895 5897 5887 5906 5906 5892 5905 5891 5901 5893 5872 5879 5877 5873 5866 5870 5839 5843 5853 5853 5842 5836 5832 5828 5826
5761 5766 5773 5778 5784 5790 5796 5802 5807 5814 5819 5825 5829 5840 5841 5888 5892 5886 5890 5887 5897 5903 5899 5910 5911 5897 5899 5905 5893 5878 5878 5844 5875 5875 5873 5866 5826 5852 5857 5850 5840 5837 5833 5830 5829
5758 5764 5770 5775 5780 5786 5795 5800 5808 5813 5817 5823 5831 5841 5841 5880 5870 5888 5891 5877 5889 5896 5899 5903 5899 5889 5900 5880 5877 5881 5772 5863 5868 5883 5875 5865 5852 5856 5860 5852 5842 5839 5837 5833 5830
5758 5763 5767 5773 5778 5784 5792 5801 5809 5811 5817 5829 5838 5826 5855 5853 5874 5880 5889 5882 5875 5882 5875 5875 5879 5871 5884 5886 5771 5811 5867 5870 5862 5878 5877 5865 5861 5864 5860 5856 5849 5846 5843 5837 5835
5759 5763 5768 5772 5778 5783 5794 5812 5809 5811 5825 5834 5839 5843 5848 5864 5876 5868 5885 5873 5872 5868 5849 5870 5855 5853 5881 5900 5863 5877 5877 5868 5879 5884 5872 5872 5873 5875 5869 5862 5856 5852 5848 5844 5842
5759 5764 5769 5773 5778 5782 5786 5815 5809 5812 5810 5837 5836 5837 5850 5856 5841 5861 5879 5852 5852 5840 5860 5857 5847 5879 5897 5900 5892 5876 5869 5871 5884 5886 5876 5878 5877 5890 5882 5869 5868 5861 5855 5852 5850
5762 5766 5770 5774 5779 5788 5812 5809 5820 5821 5804 5824 5836 5835 5841 5846 5840 5855 5863 5859 5849 5841 5850 5846 5872 5886 5883 5883 5869 5872 5871 5875 5869 5879 5889 5885 5877 5879 5894 5884 5877 5875 5871 5865 5858
5764 5768 5771 5775 5779 5810 5807 5815 5821 5819 5800 5810 5822 5830 5838 5842 5829 5862 5867 5858 5847 5839 5852 5856 5878 5874 5867 5862 5871 5861 5894 5883 5863 5860 5852 5892 5849 5887 5869 5877 5876 5876 5875 5872 5867
5767 5771 5773 5773 5794 5803 5806 5816 5818 5810 5780 5817 5823 5850 5842 5828 5837 5839 5863 5850 5834 5841 5846 5846 5853 5858 5848 5857 5875 5861 5889 5873 5863 5855 5862 5874 5865 5881 5887 5868 5877 5880 5882 5881 5879
5771 5775 5777 5784 5797 5808 5812 5815 5808 5781 5767 5806 5823 5822 5821 5829 5833 5838 5837 5851 5854 5840 5845 5848 5870 5857 5858 5870 5871 5876 5867 5865 5859 5855 5830 5865 5870 5873 5864 5855 5891 5900 5890 5890 5887
5774 5777 5780 5793 5800 5811 5812 5805 5782 5789 5809 5796 5807 5823 5825 5818 5820 5827 5820 5818 5815 5802 5811 5834 5840 5849 5858 5845 5863 5858 5846 5821 5819 5828 5829 5883 5872 5883 5909 5899 5913 5909 5905 5898 5896
5776 5780 5794 5801 5808 5811 5807 5793 5771 5787 5796 5810 5811 5814 5810 5820 5820 5821 5821 5814 5833 5830 5824 5828 5820 5845 5858 5841 5839 5852 5849 5830 5799 5819 5844 5891 5860 5879 5914 5922 5922 5924 5912 5909 5902
5780 5797 5810 5815 5813 5809 5795 5786 5783 5791 5798 5800 5810 5808 5802 5809 5817 5820 5820 5825 5820 5823 5803 5814 5821 5862 5852 5853 5850 5839 5832 5870 5845 5859 5845 5868 5892 5896 5913 5907 5910 5917 5914 5903 5902
5792 5811 5811 5820 5820 5807 5794 5771 5784 5797 5799 5802 5792 5800 5798 5802 5804 5816 5805 5806 5806 5815 5824 5815 5793 5835 5845 5846 5847 5839 5861 5835 5841 5800 5800 5844 5859 5869 5892 5893 5902 5908 5907 5902 5902
5791 5803 5816 5826 5822 5802 5790 5783 5789 5801 5798 5791 5790 5790 5793 5791 5801 5804 5802 5795 5802 5806 5817 5815 5809 5816 5833 5825 5822 5831 5824 5836 5845 5849 5823 5820 5845 5907 5903 5901 5893 5906 5903 5901 5898
5805 5793 5819 5826 5793 5802 5792 5790 5776 5794 5800 5795 5793 5790 5786 5786 5789 5792 5789 5786 5797 5800 5789 5807 5797 5797 5820 5853 5857 5847 5843 5845 5816 5811 5832 5834 5844 5909 5901 5902 5902 5892 5893 5897 5901
5796 5798 5819 5817 5787 5789 5786 5785 5790 5788 5787 5786 5783 5786 5789 5779 5764 5779 5780 5791 5790 5788 5781 5791 5788 5784 5804 5835 5847 5822 5832 5838 5844 5847 5828 5821 5839 5904 5900 5897 5899 5888 5886 5888 5889
5787 5783 5797 5799 5796 5787 5778 5777 5777 5784 5781 5784 5781 5782 5778 5774 5782 5769 5775 5787 5786 5781 5768 5772 5779 5779 5775 5798 5791 5784 5817 5826 5827 5813 5823 5833 5845 5868 5875 5877 5883 5882 5878 5879 5882
5779 5772 5772 5775 5777 5777 5776 5772 5768 5768 5778 5778 5773 5770 5766 5756 5766 5766 5777 5777 5782 5767 5775 5775 5762 5776 5782 5793 5800 5801 5803 5811 5807 5816 5805 5825 5833 5853 5869 5870 5864 5863 5867 5868 5871
5756 5752 5768 5767 5766 5764 5751 5767 5760 5765 5760 5765 5755 5766 5760 5750 5756 5751 5761 5761 5759 5772 5772 5779 5757 5764 5758 5779 5784 5782 5797 5809 5813 5819 5823 5824 5821 5853 5863 5864 5851 5852 5853 5853 5860
5748 5753 5747 5740 5762 5758 5762 5756 5753 5751 5760 5761 5755 5748 5748 5756 5757 5761 5764 5765 5765 5758 5757 5758 5754 5750 5745 5773 5772 5761 5787 5801 5807 5821 5829 5813 5832 5849 5835 5838 5840 5840 5839 5841 5848